STARLINK-34670, 65424

Orbit data source: Space-Track

STARLINK-34670, 65424 is a payload satellite owned by SpaceX/Seattle (US) in LEO that was launched on Sun, 31 Aug 2025 UTC via an FALCON 9 launch vehicle from the Air Force Eastern Test Range (AFETR). Payload-class satellites include a variety of spacecraft equipped with specific instruments for various scientific and technological missions. These include communications satellites like Starlink; space stations such as the ISS; scientific satellites like the Hubble; Earth observation satellites from companies like Planet Labs, Umbra, and HawkEye 360; GPS; miniature CubeSats for education and research; and military/defense satellites.

Loading next visibility...
Identifier
65424, 2025-192W
Orbit
LEO
Country
Flag of USUS
Related business
Manufacturer
SpaceX/Seattle
Mission
Operational Commercial Communications
Bus & Motor
STARLINK V2MO, Unknown motor
Mass
575 kg wet, ~530 kg dry
Launch date (UTC)
2025-08-31 (10 months ago)
Launch vehicle
FALCON 9
Launch site
Air Force Eastern Test Range (AFETR)
Object type
Payload
Rocket body
Debris
Shape & HBR
Box + 2 Pan, 17.7 m
Radar Cross Section
36.964 m², Large (>1 m²)

Expand to show TLE details & history
Last TLE update: 1 day ago

TLE from 1 day ago
0 STARLINK-34670
1 65424U 25192W   26170.84426624  .00016129  00000-0  53008-3 0  9990
2 65424  53.1589 117.2046 0001466 100.1764 259.9403 15.31719132 45038
Epoch: 2026-06-19T20:15Z
TLE epoch observation values (Epoch: 2026-06-19T20:15:44.603Z)
Latitude
0.00001°
Longitude
-94.79865°
Altitude
471.759 km
Speed
7.631 km/s
True Right ascension
07h 48m 49s
True Declination
0° 00' 00"
Sunlit
Object was in daylight at epoch
Visualization orbit readout
Latitude
Unknown
Longitude
Unknown
Altitude
Unknown
Speed
Unknown
Apparent Right ascension
Unknown
Apparent Declination
Unknown
Sunlit
N/A
Visualization observer readout
Local Sidereal Time
07:17:29
Azimuth
Unknown
Elevation
Unknown
Doppler factor
Unknown
Orbital elements
Apogee altitude
471.944 km
Perigee altitude
469.936 km
Semi-major axis
6,849.077 km
Eccentricity
0.00015
Inclination
53.1589°
RAAN
117.2046°
Arg. of periapsis
100.1764°
True anomaly
259.92376°
Mean anomaly
259.9403°
Eccentric anomaly
259.93203°
Mean motion
3.82909 °/min
Orbital period
94.02 mins
BSTAR
0.00053008
Loading maneuver chart data...
Computing Atmospheric mass density...
Loading historical data...
Loading historical data...
Loading historical data...
Loading historical data...
Loading historical data...
Loading historical data...
Loading historical data...

Documentation

Showing up to 5 results
|